STARLINK-1730, 46563

Orbit data source: Space-Track

STARLINK-1730, 46563 is a payload satellite owned by SpaceX/Seattle (US) in LEO that was launched on Tue, 06 Oct 2020 UTC via an FALCON 9 launch vehicle from the Air Force Eastern Test Range (AFETR). Payload-class satellites include a variety of spacecraft equipped with specific instruments for various scientific and technological missions. These include communications satellites like Starlink; space stations such as the ISS; scientific satellites like the Hubble; Earth observation satellites from companies like Planet Labs, Umbra, and HawkEye 360; GPS; miniature CubeSats for education and research; and military/defense satellites.

Loading next visibility...
Identifier
46563, 2020-070AH
Orbit
LEO
Country
Flag of USUS
Related business
Manufacturer
SpaceX/Seattle
Mission
Partially operational Commercial Communications
Bus & Motor
STARLINK, Unknown motor
Mass
260 kg wet, ~248 kg dry
Launch date (UTC)
2020-10-06 (6 years ago)
Launch vehicle
FALCON 9
Launch site
Air Force Eastern Test Range (AFETR)
Object type
Payload
Rocket body
Debris
Shape & HBR
Box + 1 Pan, 10.1 m
Radar Cross Section
13.562 m², Large (>1 m²)

Expand to show TLE details & history
Last TLE update: 18 hours ago

TLE from 18 hours ago
0 STARLINK-1730
1 46563U 20070AH  26124.54129128  .00097883  00000-0  15052-2 0  9990
2 46563  53.0270 214.8313 0004871 340.6760  19.4064 15.53458286308924
Epoch: 2026-05-04T12:59Z
TLE epoch observation values (Epoch: 2026-05-04T12:59:27.566Z)
Latitude
-0°
Longitude
157.53743°
Altitude
404.415 km
Speed
7.671 km/s
True Right ascension
14h 19m 19s
True Declination
0° 00' 00"
Sunlit
Object was in full shadow at epoch
Visualization orbit readout
Latitude
Unknown
Longitude
Unknown
Altitude
Unknown
Speed
Unknown
Apparent Right ascension
Unknown
Apparent Declination
Unknown
Sunlit
N/A
Visualization observer readout
Local Sidereal Time
14:48:25
Azimuth
Unknown
Elevation
Unknown
Doppler factor
Unknown
Orbital elements
Apogee altitude
410.224 km
Perigee altitude
403.614 km
Semi-major axis
6,785.056 km
Eccentricity
0.00049
Inclination
53.027°
RAAN
214.8313°
Arg. of periapsis
340.676°
True anomaly
19.42496°
Mean anomaly
19.4064°
Eccentric anomaly
19.41568°
Mean motion
3.88341 °/min
Orbital period
92.7 mins
BSTAR
0.0015052
Loading maneuver chart data...
Computing Atmospheric mass density...
Loading historical data...
Loading historical data...
Loading historical data...
Loading historical data...
Loading historical data...
Loading historical data...
Loading historical data...

Documentation

Showing up to 5 results
|